Weather History for Northeast Philadelphia, PA

Change the Weather History Date:

Sunday, November 13, 2011

  Actual Average Record
Temperature  
Mean Temperature 49 °F -  
Max Temperature 61 °F 52 °F 66 °F (2005)
Min Temperature 37 °F 35 °F 26 °F (1996)
Degree Days  
Heating Degree Days 16    
Moisture  
Dew Point 34 °F    
Average Humidity 52    
Maximum Humidity 89    
Minimum Humidity 31    
Precipitation  
Precipitation 0.00 in - - ()
Sea Level Pressure  
Sea Level Pressure 30.07 in    
Wind  
Wind Speed 6 mph (SW)    
Max Wind Speed 16 mph    
Max Gust Speed 28 mph    
Visibility 10 miles    
Events      
Averages and records for this station are not official NWS values.
T = Trace of Precipitation, MM = Missing Value Source: NWS Daily Summary

Daily Weather History Graph

Daily Weather History Graph

Search for Another Location

Airport:

Trip Planner

Search our weather history database for the weather conditions in past years. The results will help you decide how hot, cold, wet, or windy it might be!

Date:

Astronomy

Nov. 13, 2011 Rise Set
Actual Time 6:42 AM EST 4:45 PM EST
Civil Twilight 6:13 AM EST 5:14 PM EST
Nautical Twilight 5:41 AM EST 5:46 PM EST
Astronomical Twilight 5:09 AM EST 6:18 PM EST
Moon 6:51 PM EST (11/13) 9:13 AM EST (11/13)
Length of Visible Light 11h 00m
Length of Day
10h 02m
Waning Gibbous, 93% of the Moon is Illuminated
Nov 13
Waning Gibbous
Nov 18
Last Quarter
Nov 25
New
Dec 2
First Quarter
Dec 10
Full

Hourly Weather History & Observations

Time (EST) Temp. Dew Point Humidity Pressure Visibility Wind Dir Wind Speed Gust Speed Precip Events Conditions
12:54 AM 46.9 °F 36.0 °F 66% 30.14 in 10.0 mi SW 3.5 mph - N/A   Clear
1:54 AM 42.1 °F 34.0 °F 73% 30.14 in 10.0 mi Calm Calm - 0.00 in   Clear
2:54 AM 37.4 °F 33.8 °F 87% 30.14 in 10.0 mi Calm Calm - N/A   Clear
3:54 AM 37.9 °F 35.1 °F 89% 30.15 in 10.0 mi Calm Calm - N/A   Clear
4:54 AM 37.0 °F 33.1 °F 86% 30.14 in 10.0 mi Calm Calm - N/A   Clear
5:54 AM 37.9 °F 33.1 °F 83% 30.14 in 10.0 mi Calm Calm - N/A   Clear
7:54 AM 46.9 °F 37.0 °F 68% 30.16 in 10.0 mi Variable 4.6 mph - N/A   Clear
8:54 AM 48.9 °F 37.0 °F 64% 30.16 in 10.0 mi SW 11.5 mph - N/A   Clear
9:54 AM 52.0 °F 37.0 °F 57% 30.15 in 10.0 mi SW 11.5 mph 16.1 mph N/A   Clear
10:54 AM 55.0 °F 35.1 °F 47% 30.12 in 10.0 mi SSW 15.0 mph - N/A   Clear
11:54 AM 57.9 °F 35.1 °F 42% 30.09 in 10.0 mi SSW 12.7 mph 19.6 mph N/A   Clear
12:54 PM 59.0 °F 33.1 °F 38% 30.05 in 10.0 mi SSW 10.4 mph - N/A   Clear
1:54 PM 61.0 °F 33.1 °F 35% 30.01 in 10.0 mi SW 12.7 mph 23.0 mph N/A   Clear
2:54 PM 61.0 °F 33.1 °F 35% 30.02 in 10.0 mi SSW 10.4 mph 21.9 mph N/A   Clear
3:54 PM 60.1 °F 28.9 °F 31% 30.01 in 10.0 mi SSW 16.1 mph 27.6 mph N/A   Clear
4:54 PM 59.0 °F 32.0 °F 36% 30.01 in 10.0 mi SSW 11.5 mph 16.1 mph N/A   Clear
5:54 PM 57.9 °F 32.0 °F 37% 30.00 in 10.0 mi SSW 11.5 mph 18.4 mph N/A   Clear
6:54 PM 57.9 °F 32.0 °F 37% 30.01 in 10.0 mi SSW 10.4 mph - N/A   Mostly Cloudy
7:54 PM 57.9 °F 33.1 °F 39% 30.01 in 10.0 mi SSW 8.1 mph - N/A   Overcast
8:54 PM 57.9 °F 33.1 °F 39% 30.00 in 10.0 mi SW 10.4 mph 19.6 mph N/A   Partly Cloudy
9:54 PM 57.9 °F 32.0 °F 37% 29.98 in 10.0 mi SSW 12.7 mph 19.6 mph N/A   Clear
10:54 PM 57.0 °F 32.0 °F 39% 29.98 in 10.0 mi SSW 11.5 mph - N/A   Clear
11:54 PM 57.0 °F 34.0 °F 42% 30.00 in 10.0 mi SW 12.7 mph - N/A   Clear